When you browse on this site, cookies collect data to enhance your experience and personalize the content and advertising you see.
Visit our Privacy Policy to learn more. By continuing to use the site, you agree to this use of cookies and data.
  • In France
  • List of Countries
  • For 7 days
  • Water Temperature
  • Weather Map
  • Weather Widgets
  • user-avatar
    Login

    Hourly Weather Malanje

    Today, 5 June, Friday

    Time Temperature Precipitation Wind Pressure Humidity
    00:00 +21°C° 0 mm 1 mps 666 mmHg 59%
    01:00 +21°C° 0 mm 1 mps 666 mmHg 63%
    02:00 +20°C° 0 mm 1 mps 666 mmHg 67%
    03:00 +19°C° 0 mm 1 mps 666 mmHg 71%
    04:00 +19°C° 0 mm 1 mps 666 mmHg 75%
    05:00 +19°C° 0 mm 1 mps 666 mmHg 73%
    06:00 +19°C° 0 mm 1 mps 667 mmHg 70%
    07:00 +20°C° 0 mm 1 mps 668 mmHg 67%
    08:00 +23°C° 0 mm 1 mps 668 mmHg 57%
    09:00 +26°C° 0 mm 2 mps 668 mmHg 48%
    10:00 +29°C° 0 mm 2 mps 669 mmHg 38%
    11:00 +30°C° 0 mm 2 mps 669 mmHg 35%
    12:00 +31°C° 0 mm 2 mps 668 mmHg 32%
    13:00 +34°C° 0 mm 2 mps 668 mmHg 28%
    14:00 +32°C° 0 mm 2 mps 667 mmHg 29%
    15:00 +32°C° 0 mm 2 mps 667 mmHg 30%
    16:00 +31°C° 0 mm 2 mps 666 mmHg 30%
    17:00 +29°C° 0 mm 1 mps 666 mmHg 35%
    18:00 +27°C° 0 mm 1 mps 666 mmHg 40%
    19:00 +22°C° 0 mm 0 mps 666 mmHg 45%
    20:00 +21°C° 0 mm 0 mps 667 mmHg 48%
    21:00 +21°C° 0 mm 0 mps 667 mmHg 50%
    22:00 +20°C° 0 mm 0 mps 667 mmHg 52%
    23:00 +19°C° 0 mm 0 mps 667 mmHg 61%

    Tomorrow, 6 June, Saturday

    Time Temperature Precipitation Wind Pressure Humidity
    00:00 +20°C° 0 mm 1 mps 666 mmHg 69%
    01:00 +20°C° 0 mm 1 mps 666 mmHg 78%
    02:00 +19°C° 0 mm 1 mps 666 mmHg 81%
    03:00 +19°C° 0 mm 1 mps 666 mmHg 84%
    04:00 +16°C° 0 mm 0 mps 666 mmHg 87%
    05:00 +19°C° 0 mm 1 mps 666 mmHg 82%
    06:00 +19°C° 0 mm 1 mps 667 mmHg 77%
    07:00 +19°C° 0 mm 1 mps 668 mmHg 71%
    08:00 +21°C° 0 mm 2 mps 668 mmHg 59%
    09:00 +25°C° 0 mm 2 mps 669 mmHg 47%
    10:00 +28°C° 0 mm 2 mps 669 mmHg 35%
    11:00 +30°C° 0 mm 2 mps 669 mmHg 31%
    12:00 +31°C° 0 mm 2 mps 668 mmHg 28%
    13:00 +34°C° 0 mm 2 mps 668 mmHg 25%
    14:00 +34°C° 0 mm 2 mps 668 mmHg 25%
    15:00 +32°C° 0 mm 2 mps 667 mmHg 25%
    16:00 +32°C° 0 mm 2 mps 667 mmHg 25%
    17:00 +29°C° 0 mm 1 mps 666 mmHg 31%
    18:00 +26°C° 0 mm 1 mps 666 mmHg 37%
    19:00 +21°C° 0 mm 0 mps 666 mmHg 43%
    20:00 +21°C° 0 mm 0 mps 666 mmHg 44%
    21:00 +20°C° 0 mm 0 mps 666 mmHg 45%
    22:00 +19°C° 0 mm 0 mps 666 mmHg 47%
    23:00 +19°C° 0 mm 0 mps 666 mmHg 49%

    Day after tomorrow, 7 June, Sunday

    Time Temperature Precipitation Wind Pressure Humidity
    00:00 +20°C° 0 mm 1 mps 666 mmHg 51%
    01:00 +19°C° 0 mm 1 mps 665 mmHg 53%
    02:00 +19°C° 0 mm 1 mps 665 mmHg 55%
    03:00 +18°C° 0 mm 1 mps 665 mmHg 57%
    04:00 +18°C° 0 mm 1 mps 665 mmHg 59%
    05:00 +18°C° 0 mm 1 mps 666 mmHg 57%
    06:00 +18°C° 0 mm 1 mps 666 mmHg 56%
    07:00 +18°C° 0 mm 1 mps 667 mmHg 54%
    08:00 +20°C° 0 mm 2 mps 667 mmHg 47%
    09:00 +24°C° 0 mm 2 mps 668 mmHg 39%
    10:00 +27°C° 0 mm 3 mps 668 mmHg 32%
    11:00 +29°C° 0 mm 3 mps 668 mmHg 29%
    12:00 +31°C° 0 mm 2 mps 668 mmHg 26%
    13:00 +32°C° 0 mm 2 mps 667 mmHg 23%
    14:00 +32°C° 0 mm 2 mps 667 mmHg 23%
    15:00 +32°C° 0 mm 2 mps 666 mmHg 23%
    16:00 +31°C° 0 mm 2 mps 666 mmHg 24%
    17:00 +28°C° 0 mm 1 mps 666 mmHg 29%
    18:00 +26°C° 0 mm 1 mps 666 mmHg 34%
    19:00 +23°C° 0 mm 1 mps 665 mmHg 39%
    20:00 +22°C° 0 mm 1 mps 665 mmHg 41%
    21:00 +19°C° 0 mm 0 mps 665 mmHg 42%
    22:00 +19°C° 0 mm 0 mps 666 mmHg 44%
    23:00 +20°C° 0 mm 1 mps 665 mmHg 47%

    8 June, Monday

    Time Temperature Precipitation Wind Pressure Humidity
    00:00 +19°C° 0 mm 1 mps 665 mmHg 50%
    01:00 +18°C° 0 mm 1 mps 665 mmHg 53%
    02:00 +18°C° 0 mm 1 mps 665 mmHg 56%
    03:00 +16°C° 0 mm 1 mps 665 mmHg 60%
    04:00 +16°C° 0 mm 1 mps 664 mmHg 63%
    05:00 +16°C° 0 mm 1 mps 665 mmHg 60%
    06:00 +16°C° 0 mm 1 mps 665 mmHg 58%
    07:00 +16°C° 0 mm 2 mps 666 mmHg 55%
    08:00 +19°C° 0 mm 2 mps 666 mmHg 47%
    09:00 +23°C° 0 mm 2 mps 667 mmHg 39%
    10:00 +26°C° 0 mm 2 mps 668 mmHg 32%
    11:00 +29°C° 0 mm 2 mps 667 mmHg 28%
    12:00 +31°C° 0 mm 2 mps 667 mmHg 24%
    13:00 +33°C° 0 mm 1 mps 667 mmHg 21%
    14:00 +32°C° 0 mm 1 mps 667 mmHg 21%
    15:00 +32°C° 0 mm 1 mps 666 mmHg 21%
    16:00 +31°C° 0 mm 1 mps 666 mmHg 21%
    17:00 +28°C° 0 mm 1 mps 665 mmHg 26%
    18:00 +25°C° 0 mm 1 mps 665 mmHg 31%
    19:00 +23°C° 0 mm 1 mps 665 mmHg 36%
    20:00 +22°C° 0 mm 1 mps 665 mmHg 38%
    21:00 +21°C° 0 mm 1 mps 665 mmHg 40%
    22:00 +20°C° 0 mm 1 mps 666 mmHg 42%
    23:00 +19°C° 0 mm 1 mps 665 mmHg 51%

    9 June, Tuesday

    Time Temperature Precipitation Wind Pressure Humidity
    00:00 +19°C° 0 mm 1 mps 665 mmHg 60%
    01:00 +18°C° 0 mm 1 mps 665 mmHg 69%
    02:00 +16°C° 0 mm 1 mps 664 mmHg 73%
    03:00 +16°C° 0 mm 1 mps 664 mmHg 77%
    04:00 +15°C° 0 mm 1 mps 664 mmHg 82%
    05:00 +15°C° 0 mm 1 mps 665 mmHg 75%
    06:00 +16°C° 0 mm 1 mps 665 mmHg 68%
    07:00 +16°C° 0 mm 1 mps 666 mmHg 61%
    08:00 +20°C° 0 mm 1 mps 666 mmHg 51%
    09:00 +23°C° 0 mm 2 mps 667 mmHg 40%
    10:00 +27°C° 0 mm 2 mps 668 mmHg 30%
    11:00 +28°C° 0 mm 2 mps 668 mmHg 27%
    12:00 +30°C° 0 mm 2 mps 667 mmHg 24%
    13:00 +32°C° 0 mm 2 mps 667 mmHg 20%
    14:00 +32°C° 0 mm 1 mps 666 mmHg 20%
    15:00 +31°C° 0 mm 1 mps 666 mmHg 20%
    16:00 +31°C° 0 mm 1 mps 665 mmHg 20%
    17:00 +28°C° 0 mm 1 mps 665 mmHg 25%
    18:00 +25°C° 0 mm 1 mps 665 mmHg 29%
    19:00 +22°C° 0 mm 1 mps 664 mmHg 33%
    20:00 +21°C° 0 mm 1 mps 665 mmHg 36%
    21:00 +20°C° 0 mm 1 mps 665 mmHg 39%
    22:00 +19°C° 0 mm 1 mps 665 mmHg 42%
    23:00 +19°C° 0 mm 1 mps 665 mmHg 58%

    10 June, Wednesday

    Time Temperature Precipitation Wind Pressure Humidity
    00:00 +18°C° 0 mm 1 mps 665 mmHg 75%
    01:00 +16°C° 0 mm 1 mps 665 mmHg 91%
    02:00 +16°C° 0 mm 1 mps 665 mmHg 93%
    03:00 +15°C° 0 mm 1 mps 665 mmHg 95%
    04:00 +15°C° 0 mm 1 mps 665 mmHg 97%
    05:00 +15°C° 0 mm 1 mps 665 mmHg 92%
    06:00 +16°C° 0 mm 1 mps 665 mmHg 87%
    07:00 +16°C° 0 mm 1 mps 666 mmHg 82%
    08:00 +20°C° 0 mm 1 mps 666 mmHg 65%
    09:00 +23°C° 0 mm 2 mps 667 mmHg 47%
    10:00 +27°C° 0 mm 2 mps 668 mmHg 30%
    11:00 +29°C° 0 mm 2 mps 668 mmHg 27%
    12:00 +30°C° 0 mm 2 mps 667 mmHg 23%
    13:00 +32°C° 0 mm 2 mps 667 mmHg 20%
    14:00 +32°C° 0 mm 2 mps 666 mmHg 20%
    15:00 +31°C° 0 mm 1 mps 666 mmHg 20%
    16:00 +31°C° 0 mm 1 mps 666 mmHg 20%
    17:00 +28°C° 0 mm 1 mps 665 mmHg 25%
    18:00 +25°C° 0 mm 1 mps 665 mmHg 29%
    19:00 +20°C° 0 mm 0 mps 665 mmHg 34%
    20:00 +21°C° 0 mm 1 mps 665 mmHg 38%
    21:00 +20°C° 0 mm 1 mps 665 mmHg 42%
    22:00 +19°C° 0 mm 1 mps 665 mmHg 47%
    23:00 +18°C° 0 mm 1 mps 665 mmHg 62%
    Show more